PAL306 RPLL-VHHH

Flight info

Callsign PAL306
Flight time N/A
Altitude 38000
Route CAB2R CAB A461 NOMAN V533 BETTY
Aircraft A333/H-SDE3GHIJ2J3J5M1RVWXY/LB2D1

Departure

Time 2026-05-06 01:53
Airport Ninoy Aquino International Airport (RPLL)

Arrival

Time N/A
Airport Hong Kong International Airport (VHHH)
Time Latitude Longitude Altitude Speed Heading
2026-05-06 01:38 14.50989 121.01455 67 ft 0 kts 255°
2026-05-06 01:42 14.50996 121.01477 72 ft 4 kts 242°
2026-05-06 01:43 14.51011 121.01499 70 ft 4 kts 214°
2026-05-06 01:43 14.51034 121.01508 72 ft 4 kts 172°
2026-05-06 01:43 14.51053 121.01500 72 ft 1 kts 134°
2026-05-06 01:43 14.51057 121.01496 72 ft 0 kts 134°
2026-05-06 01:46 14.51052 121.01501 62 ft 3 kts 134°
2026-05-06 01:47 14.51026 121.01528 63 ft 7 kts 134°
2026-05-06 01:47 14.50982 121.01574 63 ft 11 kts 135°
2026-05-06 01:47 14.50924 121.01635 69 ft 12 kts 134°
2026-05-06 01:47 14.50887 121.01651 66 ft 5 kts 184°
2026-05-06 01:48 14.50846 121.01628 70 ft 10 kts 221°
2026-05-06 01:48 14.50801 121.01565 62 ft 13 kts 237°
2026-05-06 01:48 14.50753 121.01475 64 ft 16 kts 243°
2026-05-06 01:48 14.50697 121.01367 64 ft 19 kts 240°
2026-05-06 01:49 14.50626 121.01244 63 ft 21 kts 239°
2026-05-06 01:49 14.50548 121.01104 68 ft 24 kts 240°
2026-05-06 01:49 14.50462 121.00946 70 ft 27 kts 240°
2026-05-06 01:49 14.50365 121.00771 62 ft 29 kts 240°
2026-05-06 01:50 14.50260 121.00585 68 ft 31 kts 240°
2026-05-06 01:50 14.50147 121.00382 64 ft 33 kts 239°
2026-05-06 01:50 14.50030 121.00173 62 ft 32 kts 240°
2026-05-06 01:50 14.49936 121.00005 63 ft 19 kts 240°
2026-05-06 01:51 14.49899 120.99971 70 ft 0 kts 190°
2026-05-06 01:52 14.49890 120.99971 65 ft 4 kts 181°
2026-05-06 01:52 14.49844 120.99982 64 ft 9 kts 159°
2026-05-06 01:52 14.49812 121.00031 70 ft 9 kts 91°
2026-05-06 01:52 14.49837 121.00100 63 ft 11 kts 60°
2026-05-06 01:53 14.49916 121.00251 61 ft 47 kts 62°
2026-05-06 01:53 14.50232 121.00822 64 ft 133 kts 60°
2026-05-06 01:53 14.50816 121.01868 237 ft 193 kts 62°
2026-05-06 01:53 14.51456 121.03076 1373 ft 191 kts 62°
2026-05-06 01:54 14.52136 121.04284 2512 ft 195 kts 61°
2026-05-06 01:54 14.52816 121.05495 3400 ft 195 kts 61°
2026-05-06 01:54 14.53489 121.06706 4205 ft 199 kts 61°
2026-05-06 01:54 14.54187 121.07964 5000 ft 203 kts 61°
2026-05-06 01:55 14.54898 121.09244 5814 ft 206 kts 61°
2026-05-06 01:55 14.55609 121.10528 6603 ft 209 kts 61°
2026-05-06 01:55 14.56401 121.11840 7226 ft 223 kts 54°
2026-05-06 01:55 14.57616 121.12981 7563 ft 250 kts 31°
2026-05-06 01:56 14.59344 121.13500 7906 ft 275 kts
2026-05-06 01:56 14.61299 121.13560 8564 ft 285 kts
2026-05-06 01:56 14.63308 121.13542 9333 ft 290 kts
2026-05-06 01:56 14.65325 121.13525 10088 ft 295 kts
2026-05-06 01:57 14.67444 121.13521 10566 ft 310 kts
2026-05-06 01:57 14.69645 121.13454 10903 ft 329 kts 354°
2026-05-06 01:57 14.71939 121.12894 11351 ft 343 kts 343°
2026-05-06 01:57 14.73453 121.12373 11758 ft 348 kts 341°
2026-05-06 01:58 14.76518 121.11258 12687 ft 353 kts 341°
2026-05-06 01:58 14.78854 121.10403 13376 ft 357 kts 341°
2026-05-06 01:58 14.81197 121.09551 14039 ft 361 kts 341°
2026-05-06 01:58 14.82786 121.08977 14482 ft 363 kts 341°
2026-05-06 01:59 14.85197 121.08108 15161 ft 367 kts 341°
2026-05-06 01:59 14.87600 121.07242 15792 ft 371 kts 341°
2026-05-06 01:59 14.90102 121.06542 16394 ft 374 kts 351°
2026-05-06 01:59 14.92728 121.06253 17001 ft 378 kts 356°
2026-05-06 02:00 14.96243 121.06016 17739 ft 384 kts 357°
2026-05-06 02:00 14.98025 121.05903 17971 ft 390 kts 356°
2026-05-06 02:00 15.00782 121.05723 18318 ft 399 kts 356°
2026-05-06 02:00 15.03541 121.05538 18765 ft 403 kts 356°
2026-05-06 02:01 15.06358 121.05346 19256 ft 406 kts 356°
2026-05-06 02:01 15.09194 121.05150 19705 ft 409 kts 356°
2026-05-06 02:01 15.12053 121.04952 20114 ft 413 kts 356°
2026-05-06 02:01 15.14906 121.04755 20568 ft 415 kts 356°
2026-05-06 02:02 15.17807 121.04555 20978 ft 418 kts 356°
2026-05-06 02:02 15.20726 121.04354 21373 ft 421 kts 356°
2026-05-06 02:02 15.23632 121.04152 21776 ft 424 kts 356°
2026-05-06 02:02 15.26589 121.03945 22186 ft 426 kts 356°
2026-05-06 02:03 15.29577 121.03737 22579 ft 429 kts 355°
2026-05-06 02:03 15.32544 121.03530 22946 ft 432 kts 355°
2026-05-06 02:03 15.35556 121.03320 23317 ft 434 kts 355°
2026-05-06 02:03 15.38557 121.03112 23672 ft 436 kts 355°
2026-05-06 02:04 15.41616 121.02900 24003 ft 439 kts 355°
2026-05-06 02:04 15.44649 121.02679 24337 ft 442 kts 354°
2026-05-06 02:04 15.47704 121.02182 24665 ft 443 kts 345°
2026-05-06 02:04 15.50604 121.01166 24983 ft 444 kts 336°
2026-05-06 02:05 15.53445 120.99846 25337 ft 446 kts 333°
2026-05-06 02:05 15.56230 120.98398 25681 ft 447 kts 332°
2026-05-06 02:05 15.58967 120.96907 26015 ft 448 kts 330°
2026-05-06 02:05 15.61744 120.95373 26349 ft 451 kts 330°
2026-05-06 02:06 15.64503 120.93856 26684 ft 453 kts 331°
2026-05-06 02:06 15.67297 120.92334 27033 ft 455 kts 331°
2026-05-06 02:06 15.70132 120.90806 27372 ft 457 kts 331°
2026-05-06 02:06 15.72955 120.89297 27710 ft 458 kts 331°
2026-05-06 02:07 15.75780 120.87792 28043 ft 460 kts 331°
2026-05-06 02:07 15.78649 120.86265 28355 ft 462 kts 331°
2026-05-06 02:07 15.81527 120.84734 28679 ft 464 kts 331°
2026-05-06 02:07 15.84378 120.83217 29005 ft 466 kts 331°
2026-05-06 02:08 15.87276 120.81674 29327 ft 467 kts 331°
2026-05-06 02:08 15.90192 120.80118 29633 ft 470 kts 331°
2026-05-06 02:08 15.93077 120.78578 29935 ft 472 kts 331°
2026-05-06 02:08 15.96009 120.77013 30240 ft 473 kts 331°
2026-05-06 02:09 15.98951 120.75443 30559 ft 475 kts 331°
2026-05-06 02:09 16.01906 120.73865 30855 ft 476 kts 331°
2026-05-06 02:09 16.04830 120.72304 31199 ft 477 kts 330°
2026-05-06 02:09 16.07797 120.70717 31512 ft 479 kts 330°
2026-05-06 02:10 16.10775 120.69123 31871 ft 479 kts 330°
2026-05-06 02:10 16.13702 120.67558 32318 ft 477 kts 330°
2026-05-06 02:10 16.16664 120.65976 32771 ft 475 kts 330°
2026-05-06 02:10 16.19591 120.64412 33225 ft 473 kts 330°
2026-05-06 02:11 16.22539 120.62834 33660 ft 472 kts 330°
2026-05-06 02:11 16.25430 120.61285 34104 ft 470 kts 330°
2026-05-06 02:11 16.28326 120.59732 34534 ft 469 kts 330°
2026-05-06 02:11 16.31199 120.58191 34932 ft 468 kts 330°
2026-05-06 02:12 16.34100 120.56633 35315 ft 467 kts 330°
2026-05-06 02:12 16.37003 120.55075 35731 ft 466 kts 330°
2026-05-06 02:12 16.39868 120.53539 36131 ft 465 kts 330°
2026-05-06 02:12 16.42724 120.52006 36511 ft 464 kts 330°
2026-05-06 02:13 16.45602 120.50461 36874 ft 464 kts 330°
2026-05-06 02:13 16.48485 120.48913 37246 ft 463 kts 330°
2026-05-06 02:13 16.51329 120.47384 37643 ft 462 kts 330°
2026-05-06 02:13 16.54191 120.45847 37916 ft 462 kts 330°
2026-05-06 02:14 16.59898 120.42778 37965 ft 460 kts 330°
2026-05-06 02:14 16.65548 120.39740 37945 ft 457 kts 330°
2026-05-06 02:15 16.71147 120.36584 37949 ft 454 kts 324°
2026-05-06 02:15 16.75941 120.32401 37948 ft 449 kts 313°
2026-05-06 02:16 16.80298 120.27755 37947 ft 448 kts 311°
2026-05-06 02:16 16.84579 120.23012 37948 ft 449 kts 311°
2026-05-06 02:17 16.88845 120.18286 37956 ft 449 kts 311°
2026-05-06 02:17 16.93162 120.13535 37946 ft 448 kts 311°
2026-05-06 02:18 16.97426 120.08848 37953 ft 447 kts 311°
2026-05-06 02:18 17.01744 120.04107 37947 ft 448 kts 311°
2026-05-06 02:19 17.06036 119.99387 37942 ft 448 kts 311°
2026-05-06 02:19 17.10301 119.94696 37943 ft 447 kts 311°
2026-05-06 02:20 17.16719 119.87623 37941 ft 447 kts 311°
2026-05-06 02:21 17.20989 119.82915 37941 ft 447 kts 311°
2026-05-06 02:21 17.25265 119.78196 37939 ft 447 kts 311°
2026-05-06 02:22 17.29534 119.73480 37950 ft 447 kts 311°
2026-05-06 02:22 17.33825 119.68736 37950 ft 447 kts 311°
2026-05-06 02:23 17.38083 119.64025 37949 ft 447 kts 311°
2026-05-06 02:23 17.42348 119.59301 37945 ft 447 kts 311°
2026-05-06 02:24 17.46631 119.54559 37947 ft 447 kts 311°
2026-05-06 02:24 17.50891 119.49836 37939 ft 446 kts 311°
2026-05-06 02:25 17.55154 119.45108 37943 ft 446 kts 311°
2026-05-06 02:25 17.59414 119.40389 37940 ft 446 kts 311°
2026-05-06 02:26 17.63678 119.35648 37943 ft 447 kts 311°
2026-05-06 02:26 17.67950 119.30892 37945 ft 447 kts 311°
2026-05-06 02:27 17.72202 119.26167 37946 ft 447 kts 311°
2026-05-06 02:27 17.76463 119.21424 37942 ft 446 kts 311°
2026-05-06 02:28 17.80723 119.16673 37940 ft 446 kts 311°